Location: Mouss�
(47.9236°N, 1.2701°W)
Time: 01:31:40
(UTC+00:00)

SJ 16-02 - Pass Details

Date: 03 March 2021
Orbit: 605 x 617 km, 75.0° (Epoch: 12 April)

Event Time Altitude Azimuth Distance (km) Brightness Sun altitude
Rises 21:12:14 0° 332° (NNW) 2,884 5.6 -33.0°
Reaches altitude 10° 21:14:36 10° 324° (NW) 1,976 4.7 -33.4°
Enters shadow 21:16:38 24° 307° (NW) 1,288 3.5 -33.6°
